Location: Jetmore Oil Field
(38.1181°N, 99.9337°W)
Time: 15:11:46
(UTC+00:00)

STARLINK-32 - Pass Details

Date: 17 February 2020
Orbit: 529 x 531 km, 53.0° (Epoch: 28 March)

Event Time Altitude Azimuth Distance (km) Brightness Sun altitude
Rises 02:12:10 0° 235° (SW) 2,651 7.9 -22.9°
Reaches altitude 10° 02:14:24 10° 238° (WSW) 1,765 6.9 -23.3°
Enters shadow 02:18:18 65° 313° (NW) 584 3.8 -24.1°
